Flight Track Log - Related Links

Times and Time Zones

All times are in EDT time to prevent confusion due to time zone crossing. See the LXJ262 flight status page for this flight to view local times or setup timezone preferences in your user account.

Time Position Orientation Groundspeed Altitude Reporting Facility
EDT Latitude Longitude Course Direction KTS MPH feet Rate Location/Type
Mon 02:03:25 PM 39.6047 -79.9364 230° Southwest 204 235 4,800  Level Cleveland Center
Mon 02:04:25 PM 39.5592 -80.0069 230° Southwest 237 273 7,300 3,150 Climbing Cleveland Center
Mon 02:05:25 PM 39.5094 -80.0825 230° Southwest 254 292 11,100 3,900 Climbing Cleveland Center
Mon 02:07:25 PM 39.3808 -80.2717 229° Southwest 339 390 19,000 3,857 Climbing Cleveland Center
Mon 02:08:41 PM 39.2908 -80.4008 228° Southwest 375 432 23,700 3,547 Climbing Indianapolis Center
Mon 02:09:42 PM 39.2156 -80.5031 226° Southwest 395 455 27,100 3,122 Climbing Indianapolis Center
Mon 02:10:44 PM 39.1233 -80.5928 217° Southwest 413 475 30,100 3,000 Climbing Indianapolis Center
Mon 02:11:46 PM 39.0319 -80.6839 218° Southwest 416 479 33,300 2,244 Climbing Indianapolis Center
Mon 02:12:47 PM 38.9397 -80.7739 217° Southwest 416 479 34,700 829 Climbing Indianapolis Center
Mon 02:13:49 PM 38.8500 -80.8603 217° Southwest 405 466 35,000 1,403 Climbing Indianapolis Center
Mon 02:14:51 PM 38.7633 -80.9439 217° Southwest 392 451 37,600 1,984 Climbing Indianapolis Center
Mon 02:15:53 PM 38.6783 -81.0250 217° Southwest 381 438 39,100 1,161 Climbing Indianapolis Center
Mon 02:16:55 PM 38.5719 -81.1292 217° Southwest 397 457 40,000 439 Climbing Indianapolis Center
Mon 02:17:56 PM 38.4800 -81.2169 217° Southwest 405 466 40,000  Level Indianapolis Center
Mon 02:18:58 PM 38.3883 -81.3053 217° Southwest 404 465 40,000  Level Indianapolis Center
Mon 02:20:00 PM 38.2997 -81.3892 217° Southwest 399 459 40,000  Level Indianapolis Center
Mon 02:21:02 PM 38.2083 -81.4772 217° Southwest 406 467 40,000  Level Indianapolis Center
Mon 02:22:04 PM 38.1161 -81.5631 216° Southwest 409 471 40,000  Level Indianapolis Center
Mon 02:23:06 PM 38.0247 -81.6494 217° Southwest 408 470 40,000  Level Indianapolis Center
Mon 02:24:07 PM 37.9319 -81.7367 217° Southwest 411 473 40,000  Level Indianapolis Center
Mon 02:25:09 PM 37.8331 -81.8308 217° Southwest 406 467 40,000  Level Indianapolis Center
Mon 02:26:11 PM 37.7417 -81.9161 216° Southwest 407 468 40,000  Level Indianapolis Center
Mon 02:27:13 PM 37.6494 -82.0011 216° Southwest 408 470 40,000  Level Indianapolis Center
Mon 02:28:15 PM 37.5419 -82.1028 217° Southwest 412 474 40,000  Level Indianapolis Center
Mon 02:29:17 PM 37.4381 -82.1661 206° Southwest 415 478 40,000  Level Indianapolis Center
Mon 02:30:19 PM 37.3269 -82.2128 198° South 419 482 40,000  Level Indianapolis Center
Mon 02:30:53 PM 37.2753 -82.2419 204° Southwest 412 474 40,000  Level Atlanta Center
Mon 02:31:53 PM 37.1678 -82.3017 204° Southwest 419 482 40,000  Level Atlanta Center
Mon 02:32:53 PM 37.0603 -82.3611 204° Southwest 419 482 40,000  Level Atlanta Center
Mon 02:33:24 PM 37.0058 -82.3897 203° Southwest 421 484 40,000  Level Indianapolis Center
Mon 02:34:26 PM 36.8986 -82.4494 204° Southwest 418 481 40,000  Level Indianapolis Center
Mon 02:34:53 PM 36.8367 -82.4825 203° Southwest 422 486 40,000  Level Atlanta Center
Mon 02:35:53 PM 36.7311 -82.5417 204° Southwest 437 503 40,000  Level Atlanta Center
Mon 02:36:53 PM 36.6214 -82.6006 203° Southwest 432 497 40,000  Level Atlanta Center
Mon 02:37:53 PM 36.5156 -82.6594 204° Southwest 423 487 40,000  Level Atlanta Center
Mon 02:38:53 PM 36.4078 -82.7181 204° Southwest 425 489 40,000 -250 Level Atlanta Center
Mon 02:39:53 PM 36.3019 -82.7764 204° Southwest 425 489 39,500 -750 Descending Atlanta Center
Mon 02:40:53 PM 36.1983 -82.8319 203° Southwest 419 482 38,500 -1,000 Descending Atlanta Center
Mon 02:41:53 PM 36.1008 -82.8850 204° Southwest 399 459 37,500 -1,000 Descending Atlanta Center
Mon 02:42:53 PM 36.0053 -82.9375 204° Southwest 384 442 36,500 -1,000 Descending Atlanta Center
Mon 02:43:53 PM 35.9036 -82.9928 204° Southwest 389 448 35,500 -750 Descending Atlanta Center
Mon 02:44:53 PM 35.7997 -83.0478 203° Southwest 401 461 35,000 -250 Descending Atlanta Center
Mon 02:45:53 PM 35.6939 -83.1081 205° Southwest 412 474 35,000 -50 Level Atlanta Center
Mon 02:46:53 PM 35.5922 -83.1706 207° Southwest 417 480 34,900 -450 Descending Atlanta Center
Mon 02:47:53 PM 35.4964 -83.2225 204° Southwest 417 480 34,100 -450 Descending Atlanta Center
Mon 02:48:53 PM 35.3947 -83.2822 206° Southwest 417 480 34,000 -50 Descending Atlanta Center
Mon 02:49:53 PM 35.2864 -83.3467 206° Southwest 427 491 34,000 -100 Level Atlanta Center
Mon 02:50:53 PM 35.1806 -83.4086 206° Southwest 422 486 33,800 -1,650 Descending Atlanta Center
Mon 02:51:53 PM 35.0722 -83.4653 203° Southwest 422 486 30,700 -3,300 Descending Atlanta Center
Mon 02:52:53 PM 34.9661 -83.5319 207° Southwest 422 486 27,200 -3,450 Descending Atlanta Center
Mon 02:53:53 PM 34.8475 -83.5958 204° Southwest 422 486 23,800 -2,800 Descending Atlanta Center
Mon 02:55:53 PM 34.6350 -83.7181 205° Southwest 418 481 18,800 -2,133 Descending Atlanta Center
Mon 02:56:53 PM 34.5411 -83.7689 204° Southwest 418 481 17,400 -1,450 Descending Atlanta Center
Mon 02:57:53 PM 34.4389 -83.8272 205° Southwest 418 481 15,900 -1,350 Descending Atlanta Center
Mon 02:58:53 PM 34.3411 -83.8828 205° Southwest 402 463 14,700 -1,200 Descending Atlanta Center
Mon 02:59:53 PM 34.2431 -83.9358 204° Southwest 397 457 13,500 -850 Descending Atlanta Center
Mon 03:00:53 PM 34.1492 -83.9986 209° Southwest 385 443 13,000 -366 Descending Atlanta Center
Mon 03:01:15 PM 34.1000 -84.0333 210° Southwest 373 429 13,000 -512 Level Atlanta TRACON
Mon 03:02:15 PM 34.0333 -84.1000 220° Southwest 302 348 12,300 -500 Descending Atlanta TRACON
Mon 03:03:15 PM 33.9667 -84.1500 212° Southwest 271 312 12,000 -150 Descending Atlanta TRACON
Mon 03:04:15 PM 33.9000 -84.2000 212° Southwest 279 321 12,000  Level Atlanta TRACON
Mon 03:05:15 PM 33.8500 -84.2500 220° Southwest 272 313 12,000  Level Atlanta TRACON
Mon 03:06:15 PM 33.7833 -84.3000 212° Southwest 253 291 12,000 -1,000 Level Atlanta TRACON
Mon 03:07:15 PM 33.7333 -84.3500 220° Southwest 255 293 10,000 -2,000 Descending Atlanta TRACON
Mon 03:08:15 PM 33.7333 -84.4333 270° West 267 307 8,000 -1,500 Descending Atlanta TRACON
Mon 03:09:15 PM 33.7333 -84.5167 270° West 247 284 7,000 -1,200 Descending Atlanta TRACON
Mon 03:10:15 PM 33.7333 -84.6000 270° West 235 270 5,600 -950 Descending Atlanta TRACON
Mon 03:11:15 PM 33.6833 -84.6167 196° South 188 216 5,100 -800 Descending Atlanta TRACON
Mon 03:12:15 PM 33.6500 -84.5667 129° Southeast 178 205 4,000 -1,250 Descending Atlanta TRACON
Mon 03:13:15 PM 33.6500 -84.5000 90° East 165 190 2,600 -1,250 Descending Atlanta TRACON
Mon 03:14:15 PM 33.6500 -84.4667 90° East 141 162 1,500 -1,100 Descending Atlanta TRACON
Mon 03:16:00 PM 33.6367 -84.4279 103° East  Level Estimated
Mon 03:23:00 PM 33.6367 -84.4279 103° East  Level Estimated

Login

Don't have an account? Register now (free) for customized features, flight alerts, and more!